1528473600.46,51215,20.81,74268.8,7.13,5.85,4.89,0,*77
1528473601.71,51216,20.81,74268.5,7.11,5.77,4.71,0,*7C
1528473602.95,51217,20.81,74272.8,7.13,5.81,4.75,0,*72
1528473604.17,51218,20.81,74270.3,7.11,5.85,4.89,0,*78
1528473605.4,51219,20.81,74268.0,7.11,6.11,5.05,0,*72
1528473606.63,51220,20.81,74270.5,7.11,6.17,5.07,0,*7C
1528473607.86,51221,20.75,74264.8,7.11,6.17,5.07,0,*7D
1528473609.08,51222,20.81,74268.0,7.11,6.29,5.15,0,*70
1528473610.29,51223,20.81,74268.5,7.07,6.25,5.15,0,*7A
1528473611.51,51224,20.81,74268.0,7.09,6.35,5.23,0,*77
1528473612.72,51225,20.75,74266.8,7.09,6.35,5.33,0,*77
1528473613.96,51226,20.81,74270.5,7.09,6.35,5.27,0,*71
1528473615.19,51227,20.81,74270.3,7.09,6.35,5.27,0,*70
1528473616.42,51228,20.81,74268.0,7.09,6.39,5.27,0,*73
1528473617.64,51229,20.81,74268.0,7.09,6.35,5.23,0,*7A
1528473618.85,51230,20.81,74268.3,7.09,6.17,5.11,0,*73
1528473620.09,51231,20.81,74268.0,7.07,6.17,5.11,0,*7C
1528473621.3,51232,20.81,74268.8,7.09,6.17,5.11,0,*71
1528473622.5,51233,20.81,74268.5,7.09,6.17,5.15,0,*74
1528473623.72,51234,20.81,74270.8,7.07,6.25,5.15,0,*7C
1528473624.93,51235,20.81,74268.0,7.07,6.29,5.15,0,*71
1528473626.15,51236,20.81,74268.3,7.07,6.25,5.15,0,*7E
1528473627.36,51237,20.81,74268.8,7.09,6.25,5.27,0,*70
1528473628.55,51238,20.81,74268.8,7.09,6.29,5.11,0,*76
1528473629.73,51239,20.81,74268.8,7.09,6.25,5.15,0,*7F
1528473630.92,51240,20.75,74266.8,7.09,6.25,5.15,0,*71
1528473632.16,51241,20.81,74270.5,7.09,6.35,5.27,0,*70
1528473633.35,51242,20.81,74268.8,7.09,6.29,5.23,0,*7A
1528473634.56,51243,20.81,74268.5,7.09,6.17,5.11,0,*77
1528473635.75,51244,20.81,74270.3,7.09,6.25,5.11,0,*71
1528473636.96,51245,20.81,74272.0,7.09,6.17,5.11,0,*71
1528473638.19,51246,20.81,74268.0,7.07,6.07,5.05,0,*78
1528473639.4,51247,20.81,74268.8,7.09,6.03,5.01,0,*77
1528473640.65,51248,20.81,74270.5,7.07,6.03,4.93,0,*7C
1528473641.89,51249,20.81,74268.0,7.07,5.95,5.01,0,*7B
1528473643.12,51250,20.75,74266.5,7.07,6.07,5.05,0,*7F
1528473644.38,51251,20.81,74268.0,7.07,6.13,5.05,0,*7B
1528473645.64,51252,20.81,74268.0,7.07,6.13,5.05,0,*78
1528473646.88,51253,20.75,74266.8,7.07,6.03,5.01,0,*7C
1528473648.11,51254,20.81,74268.3,7.05,5.73,4.67,0,*7C
1528473649.34,51255,20.81,74270.5,7.03,5.71,4.63,0,*7D
1528473650.53,51256,20.81,74266.3,7.05,5.77,4.81,0,*72
1528473651.71,51257,20.81,74270.5,7.05,5.99,4.89,0,*7B
1528473652.93,51258,20.81,74268.3,7.05,6.21,5.01,0,*75
1528473654.16,51259,20.75,74266.8,7.03,6.13,5.07,0,*75
1528473655.35,51260,20.75,74266.5,7.05,6.11,5.07,0,*7B
1528473656.57,51261,20.75,74266.8,7.05,6.03,5.01,0,*7F
1528473657.8,51262,20.81,74270.3,7.03,5.93,4.89,0,*71
1528473659.03,51263,20.81,74268.0,7.03,5.89,4.81,0,*73
1528473660.26,51264,20.81,74268.8,7.03,5.93,4.85,0,*7B
1528473661.49,51265,20.75,74264.8,7.03,5.89,4.81,0,*75
1528473662.7,51266,20.81,74266.3,7.03,5.59,4.53,0,*74
1528473663.9,51267,20.81,74268.8,6.99,5.49,4.33,0,*70
1528473665.1,51268,20.75,74264.0,7.03,5.67,4.53,0,*77
1528473666.31,51269,20.81,74270.3,6.99,5.63,4.57,0,*74
1528473667.54,51270,20.81,74268.5,6.99,5.85,4.85,0,*7B
1528473668.74,51271,20.75,74274.8,6.97,5.85,4.81,0,*70
1528473669.94,51272,20.75,74266.0,6.97,5.93,4.89,0,*7C
1528473671.13,51273,20.81,74268.8,6.97,5.85,4.81,0,*72
1528473672.38,51274,20.75,74266.3,6.99,5.77,4.79,0,*71
1528473673.56,51275,20.81,74270.3,6.97,5.63,4.57,0,*77
1528473674.79,51276,20.81,74266.8,6.99,5.67,4.67,0,*7D
1528473676.0,51277,20.75,74266.8,6.97,5.63,4.63,0,*72
1528473677.17,51278,20.81,74268.8,6.97,5.63,4.45,0,*79
1528473678.34,51279,20.75,74266.0,6.97,5.59,4.45,0,*71
1528473679.53,51280,20.81,74266.8,6.93,5.55,4.49,0,*73
1528473680.73,51281,20.81,74266.8,6.95,5.59,4.53,0,*73
1528473681.93,51282,20.81,74268.8,6.93,5.59,4.59,0,*7C
1528473683.13,51283,20.75,74264.5,6.93,5.67,4.59,0,*70
1528473684.34,51284,20.75,74266.8,6.93,5.71,4.71,0,*7A
1528473685.6,51285,20.81,74264.5,6.95,5.93,4.93,0,*7D
1528473686.78,51286,20.75,74264.3,6.93,5.99,4.89,0,*79
1528473687.96,51287,20.81,74270.3,6.93,5.99,4.85,0,*74
1528473689.18,51288,20.81,74268.3,6.95,5.85,4.81,0,*74
1528473690.38,51289,20.75,74264.5,6.95,5.95,4.89,0,*7C
1528473691.61,51290,20.75,74264.3,6.93,5.89,4.79,0,*70
1528473692.82,51291,20.81,74264.0,6.95,5.63,4.57,0,*7F
1528473694.02,51292,20.81,74264.5,6.93,5.55,4.41,0,*78
1528473695.21,51293,20.75,74266.8,6.93,5.55,4.41,0,*79
1528473696.44,51294,20.81,74266.8,6.91,5.55,4.49,0,*74
1528473697.64,51295,20.81,74266.5,6.89,5.51,4.45,0,*74
1528473698.84,51296,20.75,74264.5,6.89,5.51,4.45,0,*77
1528473700.06,51297,20.81,74266.8,6.91,5.55,4.53,0,*7C
1528473701.27,51298,20.81,74264.0,6.91,5.49,4.37,0,*7C
1528473702.45,51299,20.75,74264.8,6.89,5.45,4.33,0,*7C
1528473703.62,51300,20.75,74266.3,6.89,5.45,4.33,0,*7D
1528473704.79,51301,20.81,74264.5,6.89,5.45,4.27,0,*79
1528473705.96,51302,20.75,74264.3,6.89,5.29,4.15,0,*71
1528473707.18,51303,20.75,74264.0,6.87,5.27,4.19,0,*7C
1528473708.38,51304,20.75,74266.8,6.87,5.37,4.33,0,*72
1528473709.58,51305,20.81,74264.8,6.87,5.49,4.41,0,*7F
1528473710.78,51306,20.75,74264.3,6.89,5.51,4.45,0,*7F
1528473711.98,51307,20.81,74264.3,6.85,5.51,4.45,0,*72
1528473713.18,51308,20.75,74266.3,6.85,5.51,4.45,0,*7D
1528473714.37,51309,20.75,74266.8,6.85,5.51,4.53,0,*7B
1528473715.6,51310,20.75,74264.8,6.87,5.51,4.45,0,*76
1528473716.8,51311,20.75,74264.3,6.85,5.51,4.53,0,*72
1528473717.99,51312,20.81,74264.5,6.85,5.51,4.53,0,*71
1528473719.17,51313,20.81,74264.3,6.85,5.63,4.53,0,*71
1528473720.35,51314,20.81,74270.3,6.85,5.59,4.45,0,*78
1528473721.52,51315,20.81,74264.0,6.85,5.71,4.57,0,*70
1528473722.75,51316,20.81,74266.0,6.83,5.77,4.67,0,*70
1528473723.95,51317,20.75,74264.3,6.83,5.71,4.59,0,*7A
1528473725.15,51318,20.81,74268.0,6.83,5.71,4.59,0,*75
1528473726.37,51319,20.81,74266.5,6.83,5.77,4.63,0,*7B
1528473727.6,51320,20.81,74264.0,6.85,5.73,4.63,0,*73
1528473728.83,51321,20.81,74270.0,6.85,5.73,4.67,0,*76
1528473730.03,51322,20.81,74264.3,6.85,5.71,4.59,0,*7A
1528473731.29,51323,20.81,74264.0,6.87,5.81,4.63,0,*7F
1528473732.49,51324,20.81,74266.3,6.85,5.73,4.57,0,*70
1528473733.72,51325,20.81,74268.0,6.85,5.81,4.63,0,*7B
1528473734.95,51326,20.75,74266.0,6.85,5.73,4.63,0,*75
1528473736.18,51327,20.75,74266.8,6.85,5.81,4.67,0,*7D
1528473737.35,51328,20.75,74262.8,6.85,5.95,4.81,0,*7F
1528473738.59,51329,20.75,74264.5,6.85,6.13,4.93,0,*70
1528473739.82,51330,20.81,74266.5,6.85,6.17,5.05,0,*72
1528473741.01,51331,20.81,74264.0,6.85,6.21,5.11,0,*73
1528473742.22,51332,20.81,74264.0,6.85,6.17,5.11,0,*75
1528473743.44,51333,20.81,74266.3,6.87,6.21,5.11,0,*73
1528473744.65,51334,20.75,74264.0,6.87,6.33,5.15,0,*73
1528473745.88,51335,20.75,74266.0,6.87,6.33,5.23,0,*77
1528473747.12,51336,20.75,74266.5,6.87,6.39,5.23,0,*7E
1528473748.31,51337,20.81,74264.3,6.89,6.25,5.15,0,*79
1528473749.5,51338,20.75,74266.5,6.89,6.25,5.15,0,*76
1528473750.69,51339,20.75,74262.8,6.85,6.29,5.15,0,*77
1528473751.9,51340,20.81,74266.8,6.89,6.35,5.29,0,*77
1528473753.11,51341,20.81,74266.3,6.89,6.47,5.37,0,*7C
1528473754.32,51342,20.75,74266.3,6.89,6.43,5.29,0,*74
1528473755.53,51343,20.75,74266.3,6.89,6.47,5.29,0,*71
1528473756.74,51344,20.75,74264.8,6.89,6.43,5.29,0,*72
1528473757.94,51345,20.75,74264.0,6.89,6.53,5.37,0,*7D
1528473759.17,51346,20.75,74262.8,6.91,6.57,5.45,0,*76
1528473760.41,51347,20.81,74264.5,6.91,6.57,5.45,0,*77
1528473761.61,51348,20.81,74266.5,6.93,6.61,5.49,0,*73
1528473762.84,51349,20.75,74266.3,6.91,6.57,5.45,0,*79
1528473764.06,51350,20.75,74260.3,6.93,6.35,5.23,0,*77
1528473765.25,51351,20.81,74268.8,6.93,6.25,5.07,0,*71
1528473766.47,51352,20.75,74264.5,6.93,6.35,5.19,0,*7C
1528473767.68,51353,20.75,74266.0,6.93,6.39,5.23,0,*78
1528473768.91,51354,20.81,74266.0,6.95,6.53,5.33,0,*74
1528473770.12,51355,20.75,74266.3,6.93,6.47,5.33,0,*76
1528473771.34,51356,20.81,74264.5,6.93,6.35,5.19,0,*78
1528473772.53,51357,20.75,74266.0,6.93,6.29,5.19,0,*74
1528473773.72,51358,20.75,74266.5,6.93,6.25,5.19,0,*77
1528473774.94,51359,20.75,74266.8,6.93,6.35,5.11,0,*7F
1528473776.17,51360,20.81,74266.5,6.95,6.51,5.29,0,*7A
1528473777.39,51361,20.75,74266.3,6.95,6.53,5.37,0,*76
1528473778.63,51362,20.81,74266.3,6.95,6.51,5.37,0,*77
1528473779.85,51363,20.75,74260.5,6.95,6.53,5.37,0,*74
1528473781.08,51364,20.81,74266.5,6.95,6.53,5.33,0,*77
1528473782.3,51365,20.75,74264.3,6.95,6.53,5.49,0,*7B
1528473783.5,51366,20.75,74266.3,6.93,6.61,5.45,0,*73
1528473784.73,51367,20.75,74262.5,6.95,6.61,5.37,0,*71
1528473785.93,51368,20.75,74264.3,6.97,6.61,5.49,0,*75
1528473787.16,51369,20.81,74268.5,6.99,6.65,5.49,0,*7E
1528473788.36,51370,20.75,74264.0,6.97,6.61,5.45,0,*70
1528473789.56,51371,20.75,74264.0,6.97,6.61,5.49,0,*7D
1528473790.79,51372,20.75,74264.8,6.99,6.65,5.45,0,*78
1528473792.0,51373,20.75,74264.3,6.97,6.65,5.45,0,*77
1528473793.22,51374,20.75,74264.0,6.99,6.69,5.41,0,*76
1528473794.43,51375,20.75,74264.5,6.97,6.65,5.49,0,*7D
1528473795.68,51376,20.81,74266.3,6.99,6.69,5.51,0,*75
1528473796.91,51377,20.75,74264.3,6.99,6.65,5.49,0,*71
1528473798.14,51378,20.75,74266.3,6.99,6.57,5.37,0,*76
1528473799.37,51379,20.81,74266.5,6.99,6.47,5.29,0,*79
1528473800.6,51380,20.81,74266.3,6.99,6.53,5.37,0,*75
1528473801.86,51381,20.75,74266.3,7.03,6.61,5.51,0,*77
1528473803.09,51382,20.75,74266.3,7.03,6.47,5.29,0,*7F
1528473804.33,51383,20.75,74264.5,7.03,6.35,5.19,0,*78
1528473805.58,51384,20.81,74266.3,7.03,6.39,5.23,0,*7A
1528473806.82,51385,20.81,74266.5,7.03,6.39,5.23,0,*7B
1528473808.06,51386,20.75,74264.8,7.03,6.35,5.11,0,*75
1528473809.3,51387,20.75,74264.0,7.03,6.47,5.33,0,*71
1528473810.53,51388,20.75,74266.8,6.99,6.47,5.37,0,*78
1528473811.76,51389,20.75,74266.0,6.99,6.57,5.37,0,*78
1528473812.96,51390,20.81,74266.3,7.05,6.69,5.45,0,*7C
1528473814.19,51391,20.75,74262.3,7.05,6.61,5.51,0,*70
1528473815.39,51392,20.75,74264.3,7.05,6.61,5.45,0,*76
1528473816.62,51393,20.75,74264.5,7.03,6.69,5.45,0,*79
1528473817.84,51394,20.75,74264.3,7.03,6.57,5.45,0,*73
1528473819.07,51395,20.81,74266.8,7.03,6.57,5.45,0,*72
1528473820.28,51396,20.75,74266.0,7.05,6.61,5.41,0,*76
1528473821.51,51397,20.75,74260.0,7.07,6.65,5.49,0,*79
1528473822.71,51398,20.75,74262.5,7.05,6.61,5.45,0,*7C
1528473823.91,51399,20.75,74264.5,7.05,6.61,5.45,0,*7D
1528473825.11,51400,20.75,74262.5,7.05,6.57,5.45,0,*7F
1528473826.34,51401,20.81,74266.8,7.03,6.57,5.45,0,*78
1528473827.57,51402,20.75,74266.0,7.07,6.53,5.37,0,*7E
1528473828.78,51403,20.75,74262.3,7.05,6.47,5.33,0,*7C
1528473829.99,51404,20.75,74260.8,7.05,6.47,5.41,0,*7E
1528473831.22,51405,20.75,74266.0,7.07,6.61,5.49,0,*71
1528473832.45,51406,20.75,74266.3,7.07,6.65,5.49,0,*76
1528473833.68,51407,20.81,74266.3,7.07,6.65,5.45,0,*7B
1528473834.92,51408,20.75,74264.3,7.07,6.65,5.49,0,*78
1528473836.17,51409,20.75,74264.0,7.07,6.73,5.55,0,*73
1528473837.41,51410,20.75,74264.0,7.07,6.73,5.45,0,*7A
1528473838.64,51411,20.75,74262.3,7.07,6.43,5.37,0,*7D
1528473839.84,51412,20.75,74260.3,7.09,6.65,5.45,0,*71
1528473841.07,51413,20.75,74262.3,7.05,6.61,5.51,0,*7D
1528473842.33,51414,20.75,74262.0,7.07,6.65,5.55,0,*78
1528473843.59,51415,20.75,74262.8,7.07,6.73,5.55,0,*7E
1528473844.8,51416,20.75,74262.3,7.07,6.75,5.59,0,*77
1528473846.01,51417,20.75,74262.3,7.07,6.83,5.59,0,*7F
1528473847.19,51418,20.75,74262.5,7.09,6.83,5.63,0,*77
1528473848.44,51419,20.75,74264.3,7.07,6.73,5.55,0,*72
1528473849.67,51420,20.75,74262.8,7.07,6.53,5.49,0,*77
1528473850.88,51421,20.75,74262.0,7.09,6.65,5.49,0,*7D
1528473852.11,51422,20.81,74266.8,7.07,6.73,5.59,0,*76
1528473853.32,51423,20.75,74262.5,7.07,6.75,5.63,0,*78
1528473854.5,51424,20.75,74262.8,7.09,6.83,5.63,0,*78
1528473855.7,51425,20.75,74262.5,7.09,6.87,5.71,0,*7E
1528473856.88,51426,20.75,74262.0,7.09,6.83,5.63,0,*7A
1528473858.08,51427,20.81,74264.5,7.11,6.75,5.59,0,*72
1528473859.28,51428,20.75,74262.5,7.09,6.53,5.45,0,*7D
1528473860.49,51429,20.75,74262.0,7.09,6.73,5.49,0,*72
1528473861.67,51430,20.75,74266.0,7.09,6.75,5.59,0,*7D
1528473862.86,51431,20.75,74266.5,7.13,6.83,5.77,0,*72
1528473864.09,51432,20.81,74266.3,7.13,6.91,5.77,0,*72
1528473865.32,51433,20.75,74264.3,7.11,6.87,5.67,0,*77
1528473866.52,51434,20.75,74262.8,7.13,6.91,5.71,0,*72
1528473867.76,51435,20.75,74262.0,7.11,6.87,5.67,0,*71
1528473868.98,51436,20.75,74262.0,7.13,6.91,5.77,0,*76
1528473870.21,51437,20.75,74264.5,7.11,6.87,5.71,0,*74
1528473871.42,51438,20.75,74260.3,7.13,6.73,6.03,0,*74
1528473872.63,51439,20.75,74260.8,7.13,6.93,6.35,0,*7E
1528473873.83,51440,20.75,74260.3,7.13,6.93,6.51,0,*72
1528473875.04,51441,20.75,74262.8,7.13,6.93,6.47,0,*74
1528473876.26,51442,20.75,74260.8,7.13,6.91,6.57,0,*74
1528473877.48,51443,20.75,74262.5,7.15,6.93,6.57,0,*71
1528473878.73,51444,20.75,74264.3,7.15,6.91,6.57,0,*74
1528473879.96,51445,20.75,74262.0,7.13,6.91,6.47,0,*72
1528473881.16,51446,20.75,74264.3,7.13,6.93,6.51,0,*74
1528473882.37,51447,20.75,74266.0,7.13,6.93,6.51,0,*75
1528473883.55,51448,20.75,74262.3,7.13,7.01,6.57,0,*76
1528473884.75,51449,20.75,74262.0,7.13,7.01,6.61,0,*72
1528473885.97,51450,20.75,74260.3,7.15,7.01,6.61,0,*7C
1528473887.16,51451,20.75,74260.0,7.17,6.93,6.53,0,*74
1528473888.37,51452,20.75,74262.3,7.13,6.83,6.47,0,*77
1528473889.62,51453,20.75,74262.5,7.15,6.91,6.57,0,*72
1528473890.86,51454,20.75,74260.5,7.15,6.91,6.57,0,*75
1528473892.12,51455,20.75,74264.0,7.15,6.87,6.51,0,*75
1528473893.38,51456,20.75,74260.8,7.15,6.69,6.43,0,*75
1528473894.61,51457,20.75,74262.8,7.15,6.57,6.25,0,*79
1528473895.85,51458,20.75,74262.8,7.15,6.51,6.33,0,*77
1528473897.11,51459,20.75,74258.8,7.15,6.69,6.43,0,*7A
1528473898.36,51460,20.75,74264.0,7.15,6.61,6.43,0,*78
1528473899.63,51461,20.75,74260.5,7.15,6.51,6.13,0,*7F
1528473900.86,51462,20.75,74262.5,7.15,6.47,6.25,0,*7E
1528473902.1,51463,20.75,74260.8,7.17,6.65,6.47,0,*79
1528473903.32,51464,20.75,74266.0,7.13,6.69,6.43,0,*72
1528473904.56,51465,20.75,74262.8,7.15,6.51,6.25,0,*7E
1528473905.82,51466,20.75,74262.5,7.15,6.43,6.13,0,*7B
1528473907.04,51467,20.75,74262.3,7.15,6.33,6.03,0,*7C
1528473908.27,51468,20.75,74262.3,7.15,6.43,6.11,0,*77
1528473909.53,51469,20.75,74262.0,7.11,6.47,6.17,0,*70
1528473910.76,51470,20.75,74264.0,7.11,6.57,6.33,0,*7F
1528473911.99,51471,20.75,74262.8,7.13,6.73,6.47,0,*79
1528473913.19,51472,20.75,74262.5,7.13,6.79,6.51,0,*77
1528473914.43,51473,20.75,74262.0,7.15,6.83,6.47,0,*72
1528473915.67,51474,20.75,74262.3,7.15,6.91,6.57,0,*77
1528473916.92,51475,20.75,74262.0,7.15,6.91,6.57,0,*76
1528473918.16,51476,20.75,74260.5,7.15,6.93,6.51,0,*71
1528473919.41,51477,20.75,74262.3,7.15,6.91,6.61,0,*71
1528473920.6,51478,20.75,74262.8,7.17,7.01,6.61,0,*74
1528473921.82,51479,20.75,74260.5,7.15,7.01,6.69,0,*7F
1528473923.06,51480,20.81,74264.0,7.15,6.91,6.57,0,*7C
1528473924.3,51481,20.75,74260.3,7.15,6.83,6.47,0,*7F
1528473925.53,51482,20.75,74260.5,7.15,6.83,6.51,0,*7B
1528473926.78,51483,20.75,74262.5,7.15,6.91,6.57,0,*7F
1528473927.98,51484,20.75,74262.0,7.17,6.93,6.65,0,*79
1528473929.18,51485,20.75,74262.8,7.17,6.97,6.73,0,*7B
1528473930.39,51486,20.75,74264.5,7.17,6.97,6.65,0,*7F
1528473931.59,51487,20.75,74266.0,7.17,6.83,6.51,0,*7C
1528473932.82,51488,20.75,74262.5,7.15,6.83,6.51,0,*71
1528473934.03,51489,20.75,74260.5,7.17,6.97,6.65,0,*70
1528473935.25,51490,20.75,74262.8,7.19,7.09,6.73,0,*77
1528473936.45,51491,20.75,74260.5,7.21,7.11,6.79,0,*7E
1528473937.67,51492,20.75,74260.8,7.15,7.01,6.61,0,*72
1528473938.89,51493,20.75,74262.8,7.19,7.05,6.65,0,*7F
1528473940.11,51494,20.75,74260.3,7.19,7.05,6.61,0,*7C
1528473941.31,51495,20.75,74260.8,7.17,6.83,6.53,0,*7D
1528473942.53,51496,20.75,74262.8,7.19,6.83,6.53,0,*70
1528473943.75,51497,20.75,74260.3,7.19,6.93,6.53,0,*70
1528473944.99,51498,20.75,74262.0,7.19,6.87,6.53,0,*7A
1528473946.25,51499,20.75,74262.8,7.19,6.73,6.47,0,*75
1528473947.48,51500,20.75,74262.5,7.19,6.75,6.47,0,*72
1528473948.71,51501,20.75,74260.3,7.19,6.83,6.47,0,*7A
1528473949.96,51502,20.75,74262.5,7.19,6.87,6.53,0,*78
1528473951.16,51503,20.75,74260.3,7.21,6.97,6.69,0,*7A
1528473952.38,51504,20.75,74260.5,7.19,6.93,6.61,0,*7A
1528473953.61,51505,20.75,74260.8,7.19,6.75,6.47,0,*77
1528473954.86,51506,20.75,74262.0,7.19,6.65,6.39,0,*7C
1528473956.12,51507,20.75,74262.3,7.19,6.47,6.13,0,*75
1528473957.37,51508,20.75,74262.3,7.19,6.17,5.85,0,*73
1528473958.58,51509,20.75,74258.8,7.15,6.25,5.99,0,*72
1528473959.82,51510,20.75,74262.0,7.15,6.47,6.21,0,*7E
1528473961.03,51511,20.75,74258.0,7.17,6.51,6.25,0,*7E
1528473962.26,51512,20.75,74260.3,7.17,6.47,6.13,0,*7F
1528473963.47,51513,20.75,74262.0,7.17,6.39,6.03,0,*76
1528473964.71,51514,20.75,74260.3,7.15,6.43,5.99,0,*7E
1528473965.94,51515,20.75,74256.5,7.15,6.47,6.25,0,*7F
1528473967.2,51516,20.75,74262.0,7.15,6.61,6.43,0,*78
1528473968.46,51517,20.75,74258.8,7.15,6.61,6.35,0,*78
1528473969.7,51518,20.75,74256.5,7.15,6.51,6.21,0,*71
1528473970.93,51519,20.75,74260.3,7.15,6.57,6.33,0,*75
1528473972.17,51520,20.75,74262.8,7.15,6.57,6.33,0,*7F
1528473973.36,51521,20.75,74260.0,7.17,6.29,5.95,0,*7A
1528473974.59,51522,20.75,74260.8,7.15,6.21,5.89,0,*7E
1528473975.83,51523,20.75,74258.0,7.15,6.21,5.93,0,*74
1528473977.05,51524,20.75,74260.3,7.15,6.25,5.99,0,*7D
1528473978.26,51525,20.75,74258.5,7.13,6.35,5.99,0,*7B
1528473979.47,51526,20.75,74260.8,7.11,6.29,5.99,0,*77
1528473980.68,51527,20.75,74262.5,7.13,6.21,5.81,0,*75
1528473981.92,51528,20.75,74262.5,7.15,6.03,5.81,0,*7C
1528473983.14,51529,20.75,74262.8,7.11,5.77,5.59,0,*7C
1528473984.35,51530,20.75,74262.3,7.13,5.85,5.67,0,*76
1528473985.57,51531,20.75,74260.3,7.11,6.11,5.85,0,*77
1528473986.79,51532,20.75,74258.0,7.11,6.07,5.77,0,*7E
1528473988.03,51533,20.75,74260.3,7.11,5.89,5.67,0,*7B
1528473989.21,51534,20.75,74260.0,7.09,6.03,5.71,0,*73
1528473990.42,51535,20.75,74258.0,7.09,6.03,5.81,0,*7D
1528473991.63,51536,20.75,74260.5,7.09,6.03,5.85,0,*7A
1528473992.84,51537,20.75,74262.5,7.09,6.25,5.93,0,*78
1528473994.08,51538,20.75,74260.5,7.07,6.35,5.95,0,*7E
1528473995.32,51539,20.75,74256.8,7.07,6.35,6.03,0,*73
1528473996.5,51540,20.75,74260.3,7.09,6.29,5.95,0,*72
1528473997.74,51541,20.75,74256.8,7.07,6.25,5.93,0,*77
1528473998.99,51542,20.75,74256.0,7.11,6.39,6.17,0,*71
1528474000.22,51543,20.75,74258.3,7.09,6.61,6.35,0,*74
1528474001.45,51544,20.75,74258.5,7.09,6.65,6.39,0,*7B
1528474002.65,51545,20.75,74258.0,7.09,6.75,6.39,0,*7B
1528474003.87,51546,20.75,74256.5,7.09,6.73,6.39,0,*7E
1528474005.08,51547,20.75,74258.5,7.09,6.51,6.25,0,*72
1528474006.28,51548,20.75,74256.0,7.09,6.43,6.29,0,*72
1528474007.51,51549,20.75,74254.3,7.09,6.61,6.35,0,*7E
1528474008.71,51550,20.75,74258.5,7.09,6.75,6.43,0,*72
1528474009.96,51551,20.75,74258.5,7.11,6.91,6.53,0,*71
1528474011.21,51552,20.75,74256.0,7.11,6.91,6.65,0,*77
1528474012.45,51553,20.75,74256.8,7.11,6.91,6.53,0,*73
1528474013.7,51554,20.75,74256.0,7.11,6.69,6.43,0,*72
1528474014.92,51555,20.75,74262.0,7.11,6.53,6.29,0,*76
1528474016.15,51556,20.75,74258.0,7.13,6.47,6.35,0,*7F
1528474017.4,51557,20.75,74256.3,7.11,6.69,6.39,0,*7C
1528474018.63,51558,20.75,74256.0,7.11,6.75,6.47,0,*77
1528474019.83,51559,20.75,74258.3,7.13,6.75,6.43,0,*70
1528474021.03,51560,20.75,74258.0,7.13,6.83,6.51,0,*70
1528474022.26,51561,20.75,74256.8,7.11,6.75,6.47,0,*7D
1528474023.49,51562,20.75,74258.0,7.13,6.73,6.47,0,*7A
1528474024.73,51563,20.75,74256.3,7.13,6.73,6.47,0,*7B
1528474025.96,51564,20.75,74260.0,7.11,6.47,6.21,0,*79
1528474027.17,51565,20.75,74256.0,7.13,6.51,6.33,0,*7E
1528474028.39,51566,20.75,74256.5,7.11,6.53,6.33,0,*7D
1528474029.61,51567,20.75,74256.3,7.13,6.35,6.11,0,*7E
1528474030.83,51568,20.75,74256.8,7.11,6.39,6.11,0,*7F
1528474032.06,51569,20.75,74256.3,7.13,6.61,6.43,0,*76
1528474033.29,51570,20.75,74258.3,7.11,6.75,6.47,0,*7D
1528474034.51,51571,20.75,74256.5,7.13,6.91,6.61,0,*70
1528474035.71,51572,20.75,74256.5,7.13,6.93,6.61,0,*71
1528474036.9,51573,20.75,74256.0,7.13,6.93,6.73,0,*73
1528474038.09,51574,20.75,74256.8,7.13,7.01,6.73,0,*7E
1528474039.34,51575,20.75,74254.8,7.11,6.91,6.65,0,*72
1528474040.57,51576,20.75,74258.5,7.15,6.93,6.69,0,*7B
1528474041.79,51577,20.75,74256.0,7.15,7.01,6.73,0,*7B
1528474043.01,51578,20.75,74258.0,7.15,6.93,6.69,0,*75
1528474044.26,51579,20.75,74256.0,7.15,6.91,6.69,0,*76
1528474045.49,51580,20.75,74256.3,7.15,6.93,6.69,0,*72
1528474046.69,51581,20.75,74258.8,7.15,7.05,6.79,0,*7C
1528474047.94,51582,20.75,74256.8,7.15,6.91,6.61,0,*7A
1528474049.14,51583,20.75,74256.5,7.17,6.97,6.73,0,*7C
1528474050.32,51584,20.75,74256.8,7.17,6.97,6.75,0,*7D
1528474051.54,51585,20.75,74256.5,7.15,6.83,6.57,0,*7B
1528474052.75,51586,20.75,74256.3,7.17,6.75,6.51,0,*75
1528474053.95,51587,20.75,74258.3,7.17,6.75,6.51,0,*74
1528474055.18,51588,20.75,74256.5,7.17,6.87,6.65,0,*71
1528474056.4,51589,20.75,74252.8,7.17,6.87,6.65,0,*70
1528474057.65,51590,20.75,74256.5,7.19,6.87,6.73,0,*71
1528474058.88,51591,20.75,74256.3,7.19,6.93,6.65,0,*72
1528474060.08,51592,20.75,74256.5,7.19,6.97,6.75,0,*74
1528474061.28,51593,20.75,74256.5,7.19,6.97,6.75,0,*75
1528474062.46,51594,20.75,74258.5,7.21,7.09,6.79,0,*73
1528474063.66,51595,20.75,74256.8,7.17,7.09,6.73,0,*7D
1528474064.85,51596,20.75,74256.5,7.17,7.05,6.73,0,*72
1528474066.05,51597,20.75,74254.3,7.19,7.05,6.75,0,*7B
1528474067.26,51598,20.75,74258.5,7.21,7.11,6.79,0,*76
1528474068.48,51599,20.75,74256.3,7.21,7.11,6.87,0,*76
1528474069.71,51600,20.75,74256.0,7.21,7.11,6.87,0,*75
1528474070.94,51601,20.75,74256.0,7.19,7.09,6.87,0,*76
1528474072.15,51602,20.75,74256.8,7.21,7.09,6.87,0,*7E
1528474073.32,51603,20.75,74258.3,7.21,7.05,6.83,0,*77
1528474074.49,51604,20.75,74254.3,7.25,7.01,6.79,0,*75
1528474075.69,51605,20.75,74252.8,7.25,7.05,6.69,0,*71
1528474076.89,51606,20.75,74258.3,7.21,7.11,6.75,0,*7E
1528474078.12,51607,20.75,74256.0,7.25,7.11,6.91,0,*71
1528474079.32,51608,20.75,74256.0,7.25,7.11,6.83,0,*7D
1528474080.49,51609,20.75,74256.0,7.25,7.05,6.83,0,*79
1528474081.66,51610,20.75,74254.5,7.25,7.05,6.83,0,*71
1528474082.89,51611,20.75,74252.8,7.25,7.15,6.91,0,*72
1528474084.12,51612,20.75,74256.5,7.25,7.15,6.91,0,*71
1528474085.32,51613,20.75,74252.5,7.27,7.05,6.79,0,*75
1528474086.52,51614,20.75,74256.0,7.27,7.05,6.83,0,*77
1528474087.74,51615,20.75,74258.5,7.27,7.11,6.83,0,*73
1528474088.94,51616,20.75,74252.8,7.25,7.15,6.83,0,*76
1528474090.17,51617,20.75,74254.3,7.27,7.11,6.83,0,*71
1528474091.4,51618,20.75,74254.5,7.25,7.15,6.91,0,*7B
1528474092.65,51619,20.75,74256.5,7.27,7.15,6.91,0,*78
1528474093.9,51620,20.75,74256.0,7.27,6.91,6.61,0,*70
1528474095.11,51621,20.75,74256.8,7.27,7.01,6.61,0,*79
1528474096.29,51622,20.75,74254.3,7.29,7.09,6.83,0,*70
1528474097.49,51623,20.75,74256.8,7.29,7.15,6.75,0,*75
1528474098.69,51624,20.75,74256.5,7.29,7.15,6.83,0,*7B
1528474099.87,51625,20.75,74252.8,7.29,7.09,6.83,0,*77
1528474101.08,51626,20.75,74254.8,7.29,7.09,6.87,0,*70
1528474102.26,51627,20.75,74256.8,7.29,7.09,6.75,0,*7C
1528474103.44,51628,20.75,74256.5,7.29,7.05,6.75,0,*7F
1528474104.62,51629,20.75,74252.8,7.29,7.09,6.75,0,*72
1528474105.8,51630,20.75,74252.0,7.29,7.05,6.75,0,*76
1528474107.02,51631,20.75,74254.3,7.31,6.97,6.65,0,*75
1528474108.22,51632,20.75,74258.8,7.29,6.93,6.61,0,*7F
1528474109.44,51633,20.75,74254.8,7.31,6.75,6.57,0,*7A
1528474110.64,51634,20.75,74252.5,7.29,6.83,6.61,0,*78
1528474111.87,51635,20.75,74254.3,7.29,6.87,6.61,0,*7D
1528474113.07,51636,20.75,74254.0,7.29,6.93,6.61,0,*7B
1528474114.26,51637,20.75,74256.0,7.29,6.83,6.57,0,*7E
1528474115.47,51638,20.75,74252.8,7.29,6.97,6.73,0,*72
1528474116.67,51639,20.75,74252.5,7.29,6.97,6.65,0,*74
1528474117.87,51640,20.75,74252.5,7.29,6.93,6.61,0,*7A
1528474119.1,51641,20.75,74252.5,7.29,6.87,6.61,0,*7E
1528474120.3,51642,20.75,74254.8,7.31,7.05,6.75,0,*7A
1528474121.5,51643,20.75,74254.0,7.29,7.05,6.73,0,*74
1528474122.7,51644,20.75,74252.3,7.29,7.05,6.73,0,*73
1528474123.88,51645,20.75,74258.0,7.29,7.09,6.75,0,*78
1528474125.08,51646,20.75,74252.5,7.29,6.93,6.61,0,*7C
1528474126.29,51647,20.75,74252.5,7.29,6.51,6.07,0,*73
1528474127.5,51648,20.75,74256.8,7.29,6.61,6.29,0,*73
1528474128.74,51649,20.75,74256.8,7.29,6.65,6.47,0,*7E
1528474129.96,51650,20.75,74256.3,7.27,6.83,6.53,0,*75
1528474131.16,51651,20.75,74252.0,7.29,6.97,6.73,0,*7D